Regional Weather Roundup
Issued by NWS

Home | Current Version | Previous Version | Graphics & Text | Print | Product List | Glossary On
Versions: 1 2 3 4 5 6 7 8 9 10 11 12 13 14 15 16 17 18 19 20 21 22 23 24 25 26 27 28 29 30 31 32 33 34 35 36 37 38 39 40 41 42 43 44 45 46 47 48 49 50
000
ASUS43 KLOT 241803
RWRIL

ILLINOIS REGIONAL WEATHER ROUNDUP
NATIONAL WEATHER SERVICE CHICAGO/ROMEOVILLE IL
100 PM CDT TUE APR 24 2018

NOTE: "FAIR" INDICATES FEW OR NO CLOUDS BELOW 12,000 FEET WITH NO
SIGNIFICANT WEATHER AND/OR OBSTRUCTIONS TO VISIBILITY.

* THESE STATIONS ARE NOT UNDER NWS QUALITY CONTROL. THEY ALSO MAY NOT
  REPORT WEATHER SUCH AS PRECIPITATION OR FOG.

ILZ001-002-007-009-015-016-024-241900-
NORTHWEST ILLINOIS

CITY           SKY/WX    TMP DP  RH WIND       PRES   REMARKS
MOLINE         FAIR      72  29  20 N9        30.02F
6HR MIN TEMP:  45; 6HR MAX TEMP:  72;

STERLING*      FAIR      72  33  24 NE12      30.03F
SAVANNA*       FAIR      70  25  18 NW8       30.03F
$$

ILZ003-004-008-010-011-017-018-241900-
NORTH CENTRAL ILLINOIS

CITY           SKY/WX    TMP DP  RH WIND       PRES   REMARKS
ROCKFORD       FAIR      69  30  23 N12G17    30.03F
6HR MIN TEMP:  49; 6HR MAX TEMP:  70;

FREEPORT*      FAIR      67  29  24 NE6       30.05F
ROCHELLE*      FAIR      69  35  28 NE10G16   30.02F
DE KALB*       FAIR      66  46  47 NE7G20    30.03F
PERU*          FAIR      71  40  32 NE13      30.01F
$$

ILZ005-006-012>014-019>023-241900-
NORTHEAST ILLINOIS

CITY           SKY/WX    TMP DP  RH WIND       PRES   REMARKS
CHICAGO-OHARE  PTSUNNY   64  48  56 NE9       30.02F
6HR MIN TEMP:  49; 6HR MAX TEMP:  64; 6HR PCP: TRACE;

CHICAGO-MIDWAY PTSUNNY   62  49  62 NE8       30.02F
6HR MIN TEMP:  51; 6HR MAX TEMP:  63;

AURORA         FAIR      67  50  54 NE7       30.01F
6HR MIN TEMP:  52; 6HR MAX TEMP:  67; 6HR PCP: TRACE;

LANSING*       CLOUDY    57  50  78 N9        30.02F
JOLIET*        PTSUNNY   65  51  60 E7        30.01F
WAUKEGAN       FAIR      58  46  64 E9        30.04F
6HR MIN TEMP:  47; 6HR MAX TEMP:  58;

DUPAGE AIRPORT   N/A     66  50  56 NE10G18   30.01F
6HR MIN TEMP:  47; 6HR MAX TEMP:  66;

KANKAKEE*      CLOUDY    62  51  67 NE9       30.01F
WHEELING       FAIR      61  48  62 NE9       30.04F
6HR MIN TEMP:  48; 6HR MAX TEMP:  62;

MORRIS*        PTSUNNY   67  49  53 NE6       29.99F
ROMEOVILLE*    PTSUNNY   65  50  58 NE8       30.01F
NORTHERLY ISL    N/A     51  44  77 N9          N/A
$$

LMZ740>746-241900-
SOUTHERN LAKE MICHIGAN

STATION/POSITION SKY/WX   TEMP    WIND        PRES    VSBY  WAVE
                          AIR SEA DIR/SP/G                  HT/PER
                          (F)     (DEG/KT/KT) (MB)    (MI)  (FT/S)
HARRISON CRIB              42     350/  9/  9   N/A
BURNHAM HARBOR             52     350/  5/ 12   N/A
CALUMET HARBOR             48     330/ 11/ 16 1016.8F
BURNS HARBOR               43     320/  5/  6 1017.3F
MICHIGAN CITY              45      30/  6/  7   N/A
ST. JOSEPH                 45 42  330/  6/  8 1017.2F         1/ 4
$$

ILZ025>027-034>036-040-047-049-050-058-095>099-241900-
WEST-CENTRAL ILLINOIS

CITY           SKY/WX    TMP DP  RH WIND       PRES   REMARKS
QUINCY         SUNNY     70  42  36 NW14G23   30.04F
GALESBURG*     FAIR      73  38  28 NE12      30.03F
MACOMB*        SUNNY     70  37  29 N13G18    30.05F
JACKSONVILLE*  SUNNY     66  47  51 NE13      30.02F
PITTSFIELD*    CLOUDY    68  50  52 N12       30.04F
$$

ILZ028>032-037-038-041>044-048-051>054-059>061-241900-
CENTRAL ILLINOIS

CITY           SKY/WX    TMP DP  RH WIND       PRES   REMARKS
PONTIAC        PTSUNNY   63  53  69 N9        30.02F
BLOOMINGTON    PTSUNNY   60  52  74 N12       30.02F
DECATUR        CLOUDY    60  52  74 N14       30.00F
PEORIA         FAIR      69  46  43 VRB3G18   30.01F
6HR MIN TEMP:  51; 6HR MAX TEMP:  69;

LACON*         FAIR      66  44  45 N6        30.01F
LINCOLN*       PTSUNNY   63  55  75 NE10G17   30.02F
SPRINGFIELD    CLOUDY    63  54  72 NE14      30.02F
6HR MIN TEMP:  53; 6HR MAX TEMP:  64; 6HR PCP: TRACE;

TAYLORVILLE    CLOUDY    60  54  80 N15       30.01F
6HR MIN TEMP:  53; 6HR MAX TEMP:  61;

$$

ILZ033-039-045-046-055>057-062-063-241900-
EAST-CENTRAL ILLINOIS

CITY           SKY/WX    TMP DP  RH WIND       PRES   REMARKS
CHAMPAIGN      CLOUDY    60  53  77 N13       29.99F
DANVILLE*      CLOUDY    60  53  78 N12       29.95F
RANTOUL*       CLOUDY    61  54  77 N12       29.99F
MATTOON        CLOUDY    58  53  84 N15       29.97F
PARIS*         CLOUDY    60  53  80 N9        29.98F
$$

ILZ079-100>102-241900-
SOUTHWEST ILLINOIS

CITY           SKY/WX    TMP DP  RH WIND       PRES   REMARKS
ALTON          CLOUDY    59  55  88 N14       30.02F
BELLEVILLE     CLOUDY    60  53  78 N10       30.00F
CAHOKIA*       CLOUDY    59  52  77 N10       30.02F
SPARTA*        CLOUDY    58  57  96 N9        30.01F
$$

ILZ064>066-069>071-074>076-080>082-084>086-088>090-092>094-241900-
SOUTH-CENTRAL ILLINOIS

CITY           SKY/WX    TMP DP  RH WIND       PRES   REMARKS
CARBONDALE     CLOUDY    58  54  86 N12       29.99S
6HR MIN TEMP:  56; 6HR MAX TEMP:  58; 6HR PCP:  0.01;

CAIRO*         CLOUDY    58  56  91 NW8       29.98F
EFFINGHAM*     CLOUDY    59  54  83 NW10      30.00S
MARION         CLOUDY    57  57 100 N6        30.00R
MT. VERNON     CLOUDY    60  53  77 VRB6      29.98F
CENTRALIA*     CLOUDY    61  55  79 N10       29.98F
SALEM*         CLOUDY    61  53  76 N9        29.99S
METROPOLIS*    CLOUDY    61  56  84 W8        29.97S
$$

ILZ067-068-072-073-078-083-087-091-241900-
SOUTHEAST ILLINOIS

CITY           SKY/WX    TMP DP  RH WIND       PRES   REMARKS
LAWRENCEVILLE  CLOUDY    58  54  86 MISG      29.96F
FLORA*         CLOUDY    60  54  78 N10       29.98F
FAIRFIELD*     CLOUDY    60  54  80 N8        29.96S
HARRISBURG*    CLOUDY    62  57  84 NW10      29.97F
ROBINSON*      CLOUDY    56  53  91 N8        29.96F
CARMI*         CLOUDY    58  54  85 N12       29.96S
$$

ABBREVIATIONS USED IN REMARKS
   TC - TEMPERATURE IN CELSIUS
  WCI - WIND CHILL INDEX
   HX - HEAT INDEX
  VSB - VISIBILITY
$$





USA.gov is the U.S. government's official web portal to all federal, state and local government web resources and services.